Location: Grand Rapids
(42.9630°N, 85.6680°W)
Time: 01:41:56
(UTC-04:00)

S-56A Canister/Altair - Pass Details

Date: 06 June 2024
Orbit: 637 x 2489 km, 38.9° (Epoch: 21 June)

Event Time Altitude Azimuth Distance (km) Brightness Sun altitude
Rises 08:49:19 0° 284° (WNW) 6,106 11.6 27.4°
Reaches altitude 10° 08:53:45 10° 279° (W) 4,980 11.2 28.2°
Maximum altitude 09:06:20 44° 215° (SW) 2,527 10.2 30.5°
Drops below altitude 10° 09:15:31 10° 147° (SSE) 3,665 11.5 32.2°
Sets 09:18:17 0° 140° (SE) 4,407 11.9 32.7°
